Location: Azul
(36.7830°S, 59.8500°W)
Time: 00:22:03
(UTC-03:00)

NOAA 15 - Pass Details

Date: 24 October 2021
Orbit: 797 x 813 km, 98.7° (Epoch: 30 November)

Event Time Altitude Azimuth Distance (km) Brightness Sun altitude
Rises 19:43:07 0° 151° (SSE) 3,339 7.7 -4.4°
Reaches altitude 10° 19:45:58 10° 137° (SE) 2,402 6.8 -4.9°
Maximum altitude 19:50:05 23° 85° (E) 1,674 5.7 -5.7°
Drops below altitude 10° 19:54:11 10° 34° (NE) 2,385 6.6 -6.4°
Sets 19:56:59 0° 19° (NNE) 3,308 7.4 -7.0°
